Home > Weather > Gibraltar > Past weeks

Flag for Gibraltar Weather for the Past 2 Weeks in Gibraltar, Gibraltar

Now
61 °F

Passing clouds.


Feels Like: 61 °F
Forecast: 51 / 60 °F
Wind: 20 mph from West

Location: Gibraltar Airport

Current Time: Feb 13, 2016 at 6:40:45 AM

Latest Report: Feb 13, 2016 at 5:50 AM


Visibility: N/A

Pressure: 30.09 "Hg

Humidity: 88%

Dew point: 57 °F

Location of GibraltarLocation

Historic Weather in Gibraltar — Graph

°F

Gibraltar Temperature Yesterday

Maximum temperature yesterday: 64 °F (at 11:50 AM)
Minimum temperature yesterday: 61 °F (at 12:50 AM)
Average temperature yesterday: 62 °F

High & Low Weather Summary for the Past Weeks

 TemperatureHumidityPressure
High68 °F (Jan 31, 4:50 PM)100% (Feb 2, 6:50 AM)30.57 "Hg (Feb 2, 6:50 AM)
Low50 °F (Jan 29, 7:50 AM)43% (Jan 31, 1:50 PM)30.09 "Hg (Feb 13, 2:50 AM)
Average60 °F79%30.33 "Hg
* Reported Jan 29 4:50 AM — Feb 13 4:50 AM, Gibraltar, Weather by CustomWeather, © 2016

Note: Actual official high and low records may vary slightly from our data, if they occured in-between our weather recording intervals... More about our weather records

Advertising

Gibraltar Weather History for the Previous 24 Hours

 ConditionsComfort  
Time TempWeatherWind HumidityBarometerVisibility
4:50 AM
Sat, Feb 13
61 °FPassing clouds.22 mph94%30.09 "HgN/A
3:50 AM61 °FPartly cloudy.18 mph94%30.09 "HgN/A
2:50 AM61 °FPassing clouds.15 mph94%30.09 "HgN/A
1:50 AM61 °FPassing clouds.22 mph100%30.12 "HgN/A
12:50 AM61 °FPassing clouds.15 mph100%30.12 "HgN/A
11:50 PM
Fri, Feb 12
61 °FPassing clouds.23 mph94%30.12 "Hg2 mi
10:50 PM61 °FPassing clouds.21 mph94%30.15 "Hg4 mi
9:50 PM61 °FPassing clouds.18 mph94%30.15 "Hg4 mi
8:50 PM61 °FLight rain. Partly cloudy.13 mph94%30.15 "Hg5 mi
7:50 PM61 °FPartly cloudy.12 mph94%30.15 "HgN/A
6:50 PM63 °FBroken clouds.12 mph83%30.15 "HgN/A
5:50 PM63 °FLight rain. Broken clouds.14 mph83%30.15 "HgN/A
4:50 PM63 °FBroken clouds.24 mph77%30.15 "HgN/A
3:50 PM64 °FBroken clouds.17 mph73%30.12 "HgN/A
2:50 PM64 °FPartly sunny.21 mph68%30.12 "HgN/A
1:50 PM63 °FPartly sunny.10 mph77%30.15 "HgN/A
12:50 PM63 °FPartly sunny.20 mph77%30.21 "HgN/A
11:50 AM64 °FPartly sunny.21 mph68%30.21 "HgN/A
10:50 AM63 °FPartly sunny.21 mph68%30.21 "HgN/A
9:50 AM61 °FPartly sunny.16 mph77%30.18 "HgN/A
8:50 AM61 °FPartly sunny.15 mph77%30.18 "HgN/A
7:50 AM61 °FPassing clouds.14 mph77%30.18 "HgN/A
6:50 AM61 °FPartly cloudy.15 mph83%30.18 "HgN/A
Weather by CustomWeather, © 2016

See weather overviewHow to use our weather pages